Flag for Germany Weather past 2 weeks in Ettlingen, Baden-Württemberg, Germany

Now
57 °F

Clear.


Feels Like: 57 °F
Forecast: 53 / 66 °F
Wind: 3 mph from North

Location: Karlsruhe - Baden Wurttemberg

Current Time: May 29, 2015 at 5:08:02 AM

Latest Report: May 29, 2015 at 4:20 AM


Visibility: 10 mi

Pressure: 29.95 "Hg

Humidity: 72%

Dew point: 48 °F

Location of EttlingenLocation

Historic Weather in Ettlingen — Graph

°F

Ettlingen temperature yesterday

Maximum temperature yesterday: 72 °F (at 3:20 PM)
Minimum temperature yesterday: 41 °F (at 4:50 AM)
Average temperature yesterday: 62 °F

Past Weeks' High & Low Weather Summary

 TemperatureHumidityPressure
High73 °F (May 18, 4:20 PM)94% (May 14, 4:50 AM)30.33 "Hg (May 14, 4:50 AM)
Low39 °F (May 22, 4:50 AM)26% (May 22, 4:50 PM)29.71 "Hg (May 18, 7:50 PM)
Average58 °F61%30.07 "Hg
* Reported May 14 4:50 AM — May 29 4:20 AM, Ettlingen, Weather by CustomWeather, © 2015

Note: Actual official high and low records may vary slightly from our data, if they occured in-between our weather recording intervals... More about our weather records

Advertising

Ettlingen weather history for previous 24 hours

 ConditionsComfort  
Time TempWeatherWind HumidityBarometerVisibility
4:20 AM
Fri, May 29
57 °FClear.3 mph72%29.95 "Hg10 mi
3:20 AM59 °FClear.5 mph68%29.98 "Hg10 mi
2:20 AM59 °FClear.5 mph63%29.98 "Hg10 mi
1:20 AM61 °FClear.5 mph59%29.98 "Hg10 mi
11:20 PM
Thu, May 28
63 °FClear.3 mph56%29.98 "Hg10 mi
10:50 PM64 °FClear.3 mph49%29.98 "Hg10 mi
10:20 PM64 °FScattered showers. Passing clouds.3 mph49%29.98 "HgN/A
9:50 PM66 °FSunny.3 mph46%29.98 "Hg10 mi
9:20 PM66 °FSunny.3 mph46%29.95 "Hg10 mi
8:50 PM68 °FPassing clouds.6 mph40%29.95 "HgN/A
8:20 PM70 °FPassing clouds.7 mph38%29.95 "HgN/A
7:50 PM70 °FPassing clouds.7 mph38%29.95 "HgN/A
7:20 PM70 °FPassing clouds.8 mph38%29.95 "HgN/A
6:50 PM70 °FSunny.9 mph35%29.95 "Hg10 mi
6:20 PM72 °FPassing clouds.6 mph33%29.95 "HgN/A
5:50 PM72 °FPassing clouds.10 mph31%29.95 "HgN/A
5:20 PM72 °FSunny.13 mph36%29.98 "Hg10 mi
4:50 PM72 °FSunny.13 mph36%29.98 "Hg10 mi
4:20 PM72 °FPassing clouds.13 mph36%29.98 "HgN/A
3:50 PM72 °FPassing clouds.10 mph36%29.98 "HgN/A
3:20 PM72 °FPassing clouds.9 mph38%30.01 "HgN/A
2:50 PM70 °FPassing clouds.9 mph38%30.01 "HgN/A
2:20 PM70 °FPassing clouds.9 mph38%30.01 "HgN/A
1:50 PM68 °FPassing clouds.9 mph38%30.04 "HgN/A
1:20 PM68 °FPassing clouds.9 mph40%30.04 "HgN/A
12:50 PM68 °FPassing clouds.10 mph38%30.04 "HgN/A
12:20 PM66 °FPassing clouds.9 mph40%30.07 "HgN/A
11:50 AM64 °FPassing clouds.9 mph43%30.07 "HgN/A
11:20 AM63 °FPassing clouds.9 mph49%30.07 "HgN/A
10:50 AM63 °FPassing clouds.8 mph49%30.09 "HgN/A
10:20 AM59 °FPassing clouds.9 mph55%30.09 "HgN/A
9:50 AM57 °FPassing clouds.9 mph59%30.09 "HgN/A
9:20 AM55 °FSunny.9 mph63%30.09 "Hg10 mi
8:50 AM54 °FPassing clouds.8 mph67%30.09 "HgN/A
8:20 AM52 °FPassing clouds.6 mph72%30.09 "HgN/A
7:50 AM46 °FSunny.5 mph87%30.09 "Hg10 mi
7:20 AM45 °FSunny.3 mph93%30.09 "Hg10 mi
6:50 AM43 °FSunny.3 mph87%30.09 "Hg10 mi
6:20 AM43 °FClear.3 mph87%30.09 "Hg10 mi
5:50 AM41 °FClear.3 mph93%30.09 "Hg10 mi
Weather by CustomWeather, © 2015

See weather overviewHow to use our weather pages